Starlink 33635

operational
NORAD ID: 63065 Int'l Des: 2025-035 Owner: SPXS Country: US Constellation: starlink
LEOCIRCULAR

Über Starlink 33635

Beschreibung wird geladen...

Live-Position

3D-Globus wird geladen...

Nächste Überflüge

Höhenverlauf

Altitude vs Time

uPlot chart will show altitude changes over time

Zweizeiliger Elementsatz

1 63065U 25035P 25304.64021561 .00032109 00000-0 11714-2 0 9995
2 63065 42.9988 155.8579 0000431 317.7838 42.2980 15.27574575 39990
Epoch: 31. Okt. 2025 • Age: 22 hours

Aktueller Status

Höhe 495.9 km
Geschwindigkeit 7.62 km/s
Subsatellitenpunkt -42.88°S, 166.79°W
Startdatum 21. Feb. 2025
Alter 0.6 years
Typ internet

Technische Details

Klassifizierung Payload
Masse 575.00 kg
Trockenmasse 530.00 kg
Gesamtmasse 575.00 kg
Länge 0.30 m
Durchmesser 4.10 m
Spannweite 29.00 m
Form Box + pan
Hersteller SPXS
Bus-Typ Starlink V2MO
Phasenstatus In Orbit
Besitzer/Staat SPXS/US

Große Konstellationen

Loading constellations...